FW7071 Weather Reports


Display with metric or nautical units.
time (UTC)temp
F
wind
direction
speed
MPH
gust
MPH
rain 1hr
in
rain 24hr
in
rain mn
in
humidity
%
barometer
mb
20260906125818 71 107 1.0 2.0 0.00 0.00 0.00 85 1017.9
20260906125315 70 296 2.0 2.0 0.00 0.00 0.00 85 1017.9
20260906124810 70 116 1.0 2.0 0.00 0.00 0.00 86 1017.8
20260906124306 69 100 2.0 3.0 0.00 0.00 0.00 85 1017.7
20260906123804 69 102 0.0 0.0 0.00 0.00 0.00 85 1017.6
20260906123300 69 67 3.0 3.0 0.00 0.00 0.00 85 1017.5
20260906122759 69 115 0.0 1.0 0.00 0.00 0.00 86 1017.6
20260906122255 68 73 1.0 1.0 0.00 0.00 0.00 87 1017.7
20260906121752 69 103 1.0 1.0 0.00 0.00 0.00 85 1017.4
20260906121247 69 70 1.0 1.0 0.00 0.00 0.00 85 1017.4
20260906120743 68 104 0.0 0.0 0.00 0.00 0.00 87 1017.1
20260906120240 67 98 0.0 0.0 0.00 0.00 0.00 88 1017.1
20260906115735 67 123 1.0 1.0 0.00 0.00 0.00 88 1017.3
20260906115230 65 96 0.0 0.0 0.00 0.00 0.00 92 1017.2
20260906114729 64 99 0.0 0.0 0.00 0.00 0.00 93 1017.1
20260906114224 64 119 0.0 0.0 0.00 0.00 0.00 94 1017.2
20260906113720 63 122 0.0 0.0 0.00 0.00 0.00 95 1017.1
20260906113219 63 116 0.0 0.0 0.00 0.00 0.00 96 1016.9
20260906112719 62 102 0.0 0.0 0.00 0.00 0.00 97 1017.0
20260906112216 62 177 0.0 0.0 0.00 0.00 0.00 97 1016.8
20260906111715 62 179 0.0 0.0 0.00 0.00 0.00 97 1016.9
20260906111210 62 179 0.0 0.0 0.00 0.00 0.00 97 1016.7
20260906110704 62 179 0.0 0.0 0.00 0.00 0.00 97 1016.7
20260906110200 61 179 0.0 0.0 0.00 0.00 0.00 97 1016.8
20260906105654 61 179 0.0 0.0 0.00 0.00 0.00 98 1016.7
20260906105150 61 178 0.0 0.0 0.00 0.00 0.00 98 1016.8
20260906104649 61 177 0.0 0.0 0.00 0.00 0.00 98 1016.5
20260906104149 61 177 0.0 0.0 0.00 0.00 0.00 98 1016.4
20260906103647 61 174 0.0 0.0 0.00 0.00 0.00 98 1016.4
20260906103142 61 174 0.0 0.0 0.00 0.00 0.00 98 1016.2
20260906102632 61 174 0.0 0.0 0.00 0.00 0.00 98 1016.2
20260906102131 61 174 0.0 0.0 0.00 0.00 0.00 98 1016.1
20260906101626 61 176 0.0 0.0 0.00 0.00 0.00 97 1016.1
20260906101126 61 176 0.0 0.0 0.00 0.00 0.00 97 1016.0
20260906100621 61 177 0.0 0.0 0.00 0.00 0.00 97 1016.0
20260906100116 61 179 0.0 0.0 0.00 0.00 0.00 97 1015.8
20260906095616 61 182 0.0 0.0 0.00 0.00 0.00 97 1015.9
20260906095112 61 181 0.0 0.0 0.00 0.00 0.00 97 1015.8
20260906094610 61 182 0.0 0.0 0.00 0.00 0.00 97 1015.9
20260906094106 62 183 0.0 0.0 0.00 0.00 0.00 97 1015.6
20260906093602 61 187 0.0 0.0 0.00 0.00 0.00 97 1015.6
20260906093057 61 174 0.0 0.0 0.00 0.00 0.00 97 1015.6
20260906092552 61 174 0.0 0.0 0.00 0.00 0.00 97 1015.4
20260906092047 61 175 0.0 1.0 0.00 0.00 0.00 98 1015.3
20260906091543 61 177 1.0 1.0 0.00 0.00 0.00 98 1015.5
20260906091039 61 170 0.0 0.0 0.00 0.00 0.00 98 1015.3
20260906090539 61 152 0.0 0.0 0.00 0.00 0.00 98 1015.2
20260906090034 61 146 0.0 0.0 0.00 0.00 0.00 98 1015.2
20260906085533 61 146 0.0 0.0 0.00 0.00 0.00 98 1015.1
20260906085032 61 146 0.0 0.0 0.00 0.00 0.00 97 1015.0
20260906084527 61 146 0.0 0.0 0.00 0.00 0.00 97 1015.0
20260906084026 61 146 0.0 0.0 0.00 0.00 0.00 97 1015.1
20260906083522 61 146 0.0 0.0 0.00 0.00 0.00 97 1015.1
20260906083022 61 146 0.0 0.0 0.00 0.00 0.00 97 1015.0
20260906082517 62 146 0.0 0.0 0.00 0.00 0.00 96 1015.0
20260906082013 62 146 0.0 0.0 0.00 0.00 0.00 96 1014.9
20260906081508 62 146 0.0 0.0 0.00 0.00 0.00 96 1015.0
20260906081003 62 146 0.0 0.0 0.00 0.00 0.00 95 1015.0
20260906080500 62 144 0.0 0.0 0.00 0.00 0.00 95 1015.0
20260906075955 62 171 0.0 0.0 0.00 0.00 0.00 95 1014.9
20260906075450 62 171 0.0 0.0 0.00 0.00 0.00 95 1015.1
20260906074945 62 171 0.0 0.0 0.00 0.00 0.00 94 1015.0
20260906074445 63 171 0.0 0.0 0.00 0.00 0.00 94 1014.9
20260906073943 62 172 0.0 0.0 0.00 0.00 0.00 94 1014.9
20260906073438 62 171 0.0 0.0 0.00 0.00 0.00 94 1015.2
20260906072935 63 171 0.0 0.0 0.00 0.00 0.00 94 1015.0
20260906072430 63 171 0.0 0.0 0.00 0.00 0.00 94 1015.0
20260906071926 63 171 0.0 0.0 0.00 0.00 0.00 94 1014.8
20260906071421 63 170 0.0 0.0 0.00 0.00 0.00 94 1014.7
20260906070917 62 168 0.0 0.0 0.00 0.00 0.00 94 1014.9
20260906070413 62 166 0.0 0.0 0.00 0.00 0.00 95 1015.0
20260906065909 62 166 0.0 0.0 0.00 0.00 0.00 95 1014.7
20260906065403 62 166 0.0 0.0 0.00 0.00 0.00 95 1015.0
20260906064859 62 167 0.0 0.0 0.00 0.00 0.00 94 1015.2
20260906064355 62 167 0.0 0.0 0.00 0.00 0.00 94 1015.1
20260906063854 62 167 0.0 0.0 0.00 0.00 0.00 94 1015.1
20260906063350 62 166 0.0 0.0 0.00 0.00 0.00 94 1015.0
20260906062845 62 166 0.0 0.0 0.00 0.00 0.00 94 1014.9
20260906062344 62 166 0.0 0.0 0.00 0.00 0.00 94 1014.9
20260906061839 63 166 0.0 0.0 0.00 0.00 0.00 94 1014.9
20260906061336 63 166 0.0 0.0 0.00 0.00 0.00 93 1015.0
20260906060830 63 166 0.0 0.0 0.00 0.00 0.00 93 1015.2
20260906060328 63 166 0.0 0.0 0.00 0.00 0.00 93 1014.9
20260906055823 63 166 0.0 0.0 0.00 0.00 0.00 93 1015.2
20260906055314 63 166 0.0 0.0 0.00 0.00 0.00 92 1015.2
20260906054809 63 166 0.0 0.0 0.00 0.00 0.00 93 1015.3
20260906054304 64 166 0.0 0.0 0.00 0.00 0.00 92 1015.5
20260906053800 64 166 0.0 0.0 0.00 0.00 0.00 92 1015.4
20260906053255 64 166 0.0 0.0 0.00 0.00 0.00 91 1015.5
20260906052750 64 166 0.0 0.0 0.00 0.00 0.00 91 1015.4
20260906052246 64 166 0.0 0.0 0.00 0.00 0.00 91 1015.5
20260906051743 64 166 0.0 0.0 0.00 0.00 0.00 90 1015.8
20260906051243 65 166 0.0 0.0 0.00 0.00 0.00 90 1015.4
20260906050738 65 166 0.0 0.0 0.00 0.00 0.00 89 1015.4
20260906050233 65 167 0.0 0.0 0.00 0.00 0.00 89 1015.3
20260906045732 65 167 0.0 0.0 0.00 0.00 0.00 89 1015.5
20260906045227 65 167 0.0 0.0 0.00 0.00 0.00 88 1015.3
20260906044723 65 165 0.0 0.0 0.00 0.00 0.00 88 1015.4
20260906044218 65 165 0.0 0.0 0.00 0.00 0.00 88 1015.1
20260906043714 65 165 0.0 0.0 0.00 0.00 0.00 88 1015.5
20260906043210 65 165 0.0 0.0 0.00 0.00 0.00 88 1015.7
20260906042709 65 165 0.0 0.0 0.00 0.00 0.00 87 1015.6
20260906042209 65 165 0.0 0.0 0.00 0.00 0.00 87 1015.4
20260906041704 65 165 0.0 0.0 0.00 0.00 0.00 87 1015.2
20260906041159 65 165 0.0 1.0 0.00 0.00 0.00 88 1015.5
20260906040655 65 163 0.0 0.0 0.00 0.00 0.00 88 1015.4
20260906040150 65 162 0.0 0.0 0.00 0.00 0.00 88 1015.6
20260906035645 65 161 0.0 0.0 0.00 0.00 0.00 88 1015.3
20260906035142 65 161 0.0 0.0 0.00 0.00 0.00 88 1015.5
20260906034636 65 154 0.0 0.0 0.00 0.00 0.00 88 1015.4
20260906034135 65 148 0.0 0.0 0.00 0.00 0.00 88 1015.3
20260906033631 65 148 0.0 0.0 0.00 0.00 0.00 88 1015.3
20260906033126 65 148 0.0 0.0 0.00 0.00 0.00 87 1015.5
20260906032623 66 148 0.0 0.0 0.00 0.00 0.00 87 1015.2
20260906032122 66 148 0.0 0.0 0.00 0.00 0.00 87 1015.4
20260906031618 66 148 0.0 0.0 0.00 0.00 0.00 87 1015.3
20260906031113 66 148 0.0 0.0 0.00 0.00 0.00 86 1015.0
20260906030612 66 148 0.0 0.0 0.00 0.00 0.00 86 1015.2
20260906030108 66 148 0.0 0.0 0.00 0.00 0.00 86 1015.3
20260906025607 66 148 0.0 0.0 0.00 0.00 0.00 86 1015.2
20260906025105 66 148 0.0 0.0 0.00 0.00 0.00 86 1015.2
20260906024600 66 148 0.0 0.0 0.00 0.00 0.00 86 1015.2
20260906024055 66 148 0.0 0.0 0.00 0.00 0.00 85 1015.2
20260906023551 67 148 0.0 0.0 0.00 0.00 0.00 85 1015.2
20260906023046 67 148 0.0 0.0 0.00 0.00 0.00 85 1015.2
20260906022541 67 148 0.0 0.0 0.00 0.00 0.00 85 1015.0
20260906022036 67 148 0.0 0.0 0.00 0.00 0.00 83 1014.9
20260906021532 68 147 0.0 0.0 0.00 0.00 0.00 83 1015.0
20260906021031 68 148 0.0 0.0 0.00 0.00 0.00 83 1015.0
20260906020531 68 150 0.0 1.0 0.00 0.00 0.00 83 1015.2
20260906020030 68 152 0.0 0.0 0.00 0.00 0.00 82 1015.0
20260906015529 68 161 0.0 0.0 0.00 0.00 0.00 82 1015.1
20260906015024 68 145 0.0 0.0 0.00 0.00 0.00 82 1015.1
20260906014519 68 145 0.0 0.0 0.00 0.00 0.00 82 1015.2
20260906014015 68 144 0.0 0.0 0.00 0.00 0.00 83 1015.1
20260906013510 68 140 0.0 0.0 0.00 0.00 0.00 83 1014.9
20260906013006 68 139 0.0 0.0 0.00 0.00 0.00 83 1014.8
20260906012501 68 139 0.0 0.0 0.00 0.00 0.00 82 1015.0
20260906012000 68 139 0.0 0.0 0.00 0.00 0.00 82 1014.9
20260906011455 68 139 0.0 0.0 0.00 0.00 0.00 82 1014.8
20260906010950 69 139 0.0 0.0 0.00 0.00 0.00 81 1014.8
20260906010446 69 139 0.0 0.0 0.00 0.00 0.00 81 1014.7
20260906005942 69 139 0.0 0.0 0.00 0.00 0.00 80 1014.7
20260906005441 69 139 0.0 0.0 0.00 0.00 0.00 79 1014.5
20260906004939 69 139 0.0 0.0 0.00 0.00 0.00 79 1014.1
20260906004434 70 139 0.0 0.0 0.00 0.00 0.00 78 1014.3
20260906003930 70 132 0.0 1.0 0.00 0.00 0.00 79 1014.4
20260906003430 70 140 0.0 1.0 0.00 0.00 0.00 78 1014.3
20260906002925 70 140 0.0 0.0 0.00 0.00 0.00 78 1014.3
20260906002425 71 142 0.0 0.0 0.00 0.00 0.00 77 1014.1
20260906001920 71 143 0.0 0.0 0.00 0.00 0.00 76 1014.3
20260906001416 71 143 0.0 0.0 0.00 0.00 0.00 75 1013.7
20260906000911 71 143 0.0 0.0 0.00 0.00 0.00 75 1014.0
20260906000406 71 143 0.0 0.0 0.00 0.00 0.00 75 1014.0
20260905235900 72 143 0.0 0.0 0.00 0.00 0.00 75 1013.8
20260905235355 72 137 0.0 0.0 0.00 0.00 0.00 74 1013.6
20260905234850 72 137 0.0 0.0 0.00 0.00 0.00 73 1014.0
20260905234345 72 156 1.0 1.0 0.00 0.00 0.00 73 1013.7
20260905233841 72 154 0.0 0.0 0.00 0.00 0.00 72 1013.7
20260905233336 73 165 0.0 0.0 0.00 0.00 0.00 71 1013.7
20260905232835 73 122 1.0 1.0 0.00 0.00 0.00 71 1013.6
20260905232331 73 147 0.0 0.0 0.00 0.00 0.00 71 1013.7
20260905231827 73 156 0.0 1.0 0.00 0.00 0.00 70 1013.5
20260905231327 74 143 0.0 1.0 0.00 0.00 0.00 70 1013.6
20260905230824 74 155 1.0 1.0 0.00 0.00 0.00 69 1013.6
20260905230321 74 148 0.0 0.0 0.00 0.00 0.00 69 1013.5
20260905225820 75 126 0.0 0.0 0.00 0.00 0.00 68 1013.4
20260905225310 75 123 0.0 1.0 0.00 0.00 0.00 67 1013.4
20260905224810 75 75 1.0 2.0 0.00 0.00 0.00 67 1013.5
20260905224306 75 134 0.0 0.0 0.00 0.00 0.00 67 1013.4
20260905223801 75 38 0.0 0.0 0.00 0.00 0.00 66 1013.4
20260905223258 76 118 1.0 1.0 0.00 0.00 0.00 65 1013.3
20260905222753 77 1 1.0 1.0 0.00 0.00 0.00 63 1013.4
20260905222252 77 144 0.0 0.0 0.00 0.00 0.00 62 1013.5
20260905221748 78 64 1.0 1.0 0.00 0.00 0.00 62 1013.4
20260905221245 79 316 6.0 9.0 0.00 0.00 0.00 59 1013.3
20260905220740 79 269 1.0 2.0 0.00 0.00 0.00 60 1013.4
20260905220236 79 220 1.0 1.0 0.00 0.00 0.00 61 1013.1
20260905215735 79 203 0.0 1.0 0.00 0.00 0.00 61 1013.2
20260905215231 80 216 0.0 1.0 0.00 0.00 0.00 59 1013.1
20260905214721 80 253 1.0 1.0 0.00 0.00 0.00 57 1013.1
20260905214216 80 264 1.0 1.0 0.00 0.00 0.00 57 1013.0
20260905213712 80 255 1.0 1.0 0.00 0.00 0.00 57 1013.2
20260905213208 79 321 3.0 5.0 0.00 0.00 0.00 57 1012.9
20260905212703 81 94 0.0 1.0 0.00 0.00 0.00 59 1012.9
20260905212202 81 239 2.0 3.0 0.00 0.00 0.00 57 1013.0
20260905211702 81 68 3.0 3.0 0.00 0.00 0.00 57 1013.0
20260905211152 81 278 4.0 6.0 0.00 0.00 0.00 57 1012.8
20260905210649 81 2 1.0 1.0 0.00 0.00 0.00 57 1013.1
20260905210148 81 268 2.0 2.0 0.00 0.00 0.00 57 1012.9
20260905205647 81 267 2.0 2.0 0.00 0.00 0.00 58 1013.0
20260905205142 80 273 0.0 0.0 0.00 0.00 0.00 59 1013.0
20260905204641 80 160 1.0 1.0 0.00 0.00 0.00 58 1013.0
20260905204136 79 244 3.0 3.0 0.00 0.00 0.00 58 1012.8
20260905203631 80 108 0.0 0.0 0.00 0.00 0.00 58 1012.9
20260905203126 80 125 1.0 1.0 0.00 0.00 0.00 56 1013.0
20260905202622 80 269 1.0 2.0 0.00 0.00 0.00 57 1012.9
20260905202117 80 200 1.0 2.0 0.00 0.00 0.00 56 1013.1
20260905201612 81 269 6.0 7.0 0.00 0.00 0.00 54 1013.0
20260905201112 81 116 1.0 2.0 0.00 0.00 0.00 56 1013.4
20260905200608 81 206 2.0 2.0 0.00 0.00 0.00 54 1013.2
20260905195555 81 306 2.0 3.0 0.00 0.00 0.00 54 1013.1
20260905195051 81 232 1.0 1.0 0.00 0.00 0.00 57 1013.4
20260905194550 81 320 4.0 6.0 0.00 0.00 0.00 54 1013.2
20260905194050 82 253 5.0 6.0 0.00 0.00 0.00 54 1013.1
20260905193545 82 220 0.0 1.0 0.00 0.00 0.00 58 1013.3
20260905193035 81 219 2.0 3.0 0.00 0.00 0.00 56 1013.3
20260905192530 80 252 3.0 3.0 0.00 0.00 0.00 56 1013.4
20260905192027 80 160 1.0 1.0 0.00 0.00 0.00 57 1013.5
20260905191525 80 117 2.0 2.0 0.00 0.00 0.00 55 1013.6
20260905191024 81 292 4.0 5.0 0.00 0.00 0.00 53 1013.3
20260905190522 81 240 2.0 2.0 0.00 0.00 0.00 57 1013.5
20260905190021 79 175 1.0 2.0 0.00 0.00 0.00 62 1013.2
20260905185516 79 97 2.0 3.0 0.00 0.00 0.00 63 1013.2
20260905185015 82 169 3.0 6.0 0.00 0.00 0.00 58 1013.5
20260905184510 81 208 1.0 2.0 0.00 0.00 0.00 57 1013.4
20260905184009 80 246 3.0 6.0 0.00 0.00 0.00 57 1013.4
20260905183508 81 305 7.0 9.0 0.00 0.00 0.00 55 1013.4
20260905183003 80 124 1.0 2.0 0.00 0.00 0.00 62 1013.4
20260905182503 81 201 2.0 3.0 0.00 0.00 0.00 58 1013.7
20260905181957 79 136 1.0 3.0 0.00 0.00 0.00 63 1013.6
20260905181452 77 147 0.0 1.0 0.00 0.00 0.00 63 1013.5
20260905180951 77 106 1.0 1.0 0.00 0.00 0.00 64 1013.7
20260905180446 79 275 1.0 2.0 0.00 0.00 0.00 62 1013.6
20260905175942 79 324 2.0 3.0 0.00 0.00 0.00 61 1013.7
20260905175441 79 302 6.0 8.0 0.00 0.00 0.00 59 1013.6
20260905174937 79 186 0.0 1.0 0.00 0.00 0.00 63 1013.7
20260905174432 80 71 2.0 3.0 0.00 0.00 0.00 61 1013.8
20260905173927 80 301 4.0 5.0 0.00 0.00 0.00 59 1013.7
20260905173424 79 286 9.0 11.0 0.00 0.00 0.00 60 1013.6
20260905172919 80 260 3.0 3.0 0.00 0.00 0.00 59 1013.9
20260905172416 79 236 2.0 2.0 0.00 0.00 0.00 63 1013.9
20260905171912 80 62 2.0 3.0 0.00 0.00 0.00 61 1013.6
20260905171403 79 260 3.0 5.0 0.00 0.00 0.00 60 1013.8
20260905170859 80 103 1.0 3.0 0.00 0.00 0.00 63 1013.8
20260905170355 79 300 4.0 5.0 0.00 0.00 0.00 62 1013.9
20260905165854 80 233 7.0 8.0 0.00 0.00 0.00 62 1013.9
20260905165349 80 184 1.0 1.0 0.00 0.00 0.00 62 1013.9
20260905164844 78 283 7.0 8.0 0.00 0.00 0.00 63 1013.8
20260905164339 79 229 1.0 2.0 0.00 0.00 0.00 64 1013.9
20260905163834 79 182 1.0 3.0 0.00 0.00 0.00 64 1014.0
20260905163330 78 161 1.0 2.0 0.00 0.00 0.00 66 1014.2
20260905162826 79 121 2.0 2.0 0.00 0.00 0.00 65 1014.2
20260905162320 78 236 0.0 1.0 0.00 0.00 0.00 67 1014.3
20260905161815 78 295 4.0 6.0 0.00 0.00 0.00 64 1014.5
20260905161315 79 57 3.0 6.0 0.00 0.00 0.00 64 1014.5
20260905160813 77 82 2.0 3.0 0.00 0.00 0.00 66 1014.6
20260905160313 79 99 3.0 5.0 0.00 0.00 0.00 64 1014.4
20260905155808 78 194 1.0 2.0 0.00 0.00 0.00 69 1014.5
20260905155307 78 124 3.0 3.0 0.00 0.00 0.00 66 1014.3
20260905154801 78 88 3.0 5.0 0.00 0.00 0.00 68 1014.4
20260905154257 78 68 4.0 6.0 0.00 0.00 0.00 67 1014.5
20260905153752 79 252 3.0 5.0 0.00 0.00 0.00 66 1014.3
20260905153248 78 141 0.0 0.0 0.00 0.00 0.00 67 1014.4
20260905152743 78 135 0.0 0.0 0.00 0.00 0.00 68 1014.4
20260905152242 77 122 4.0 5.0 0.00 0.00 0.00 68 1014.4
20260905151742 77 275 5.0 7.0 0.00 0.00 0.00 70 1014.2
20260905151238 77 160 3.0 3.0 0.00 0.00 0.00 70 1014.2
20260905150738 78 337 4.0 6.0 0.00 0.00 0.00 70 1014.4
20260905150238 79 165 0.0 1.0 0.00 0.00 0.00 71 1014.2
20260905145735 78 135 1.0 1.0 0.00 0.00 0.00 71 1014.5
20260905145230 77 47 1.0 3.0 0.00 0.00 0.00 72 1014.4
20260905144729 77 116 2.0 2.0 0.00 0.00 0.00 72 1014.2
20260905144224 77 110 1.0 1.0 0.00 0.00 0.00 72 1013.9
20260905143724 77 180 1.0 1.0 0.00 0.00 0.00 72 1013.8
20260905143223 76 66 1.0 2.0 0.00 0.00 0.00 72 1014.2
20260905142721 76 155 2.0 2.0 0.00 0.00 0.00 72 1014.2
20260905142216 76 99 2.0 2.0 0.00 0.00 0.00 72 1014.1
20260905141712 77 85 2.0 3.0 0.00 0.00 0.00 71 1014.2
20260905141208 76 135 0.0 1.0 0.00 0.00 0.00 73 1014.3
20260905140702 76 103 2.0 3.0 0.00 0.00 0.00 73 1014.3
20260905140157 75 87 1.0 2.0 0.00 0.00 0.00 76 1014.3
20260905135651 76 285 1.0 2.0 0.00 0.00 0.00 76 1014.3
20260905135147 77 70 1.0 2.0 0.00 0.00 0.00 75 1014.2
20260905134646 75 278 1.0 2.0 0.00 0.00 0.00 78 1014.3
20260905134146 74 149 1.0 2.0 0.00 0.00 0.00 78 1014.4
20260905133641 74 72 1.0 2.0 0.00 0.00 0.00 79 1014.4
20260905133136 75 193 1.0 2.0 0.00 0.00 0.00 78 1014.4
20260905132635 75 83 1.0 2.0 0.00 0.00 0.00 79 1014.3
20260905132130 75 124 0.0 0.0 0.00 0.00 0.00 79 1014.1
20260905131625 73 121 0.0 0.0 0.00 0.00 0.00 80 1014.0
20260905131121 73 76 4.0 8.0 0.00 0.00 0.00 81 1014.2
20260905130620 73 95 0.0 1.0 0.00 0.00 0.00 81 1014.1
20260905130115 73 238 2.0 2.0 0.00 0.00 0.00 81 1014.1